STARLINK-31914, 59902

Orbit data source: Space-Track

STARLINK-31914, 59902 is a payload satellite owned by SpaceX/Seattle (US) in LEO that was launched on Tue, 28 May 2024 UTC via an FALCON 9 launch vehicle from the Air Force Eastern Test Range (AFETR). Payload-class satellites include a variety of spacecraft equipped with specific instruments for various scientific and technological missions. These include communications satellites like Starlink; space stations such as the ISS; scientific satellites like the Hubble; Earth observation satellites from companies like Planet Labs, Umbra, and HawkEye 360; GPS; miniature CubeSats for education and research; and military/defense satellites.

Loading next visibility...
Identifier
59902, 2024-100T
Orbit
LEO
Country
Flag of USUS
Related business
Manufacturer
SpaceX/Seattle
Mission
Operational Commercial Communications
Bus & Motor
STARLINK V2M, Unknown motor
Mass
730 kg wet, ~700 kg dry
Launch date (UTC)
2024-05-28 (2 years ago)
Launch vehicle
FALCON 9
Launch site
Air Force Eastern Test Range (AFETR)
Object type
Payload
Rocket body
Debris
Shape & HBR
Box + 2 Pan, 17.7 m
Radar Cross Section
33.884 m², Large (>1 m²)

Expand to show TLE details & history
Last TLE update: 11 hours ago

TLE from 11 hours ago
0 STARLINK-31914
1 59902U 24100T   26126.16103188  .00000352  00000-0  22318-4 0  9997
2 59902  43.0027 161.0611 0001464 272.9908  87.0776 15.27575993109830
Epoch: 2026-05-06T03:51Z
TLE epoch observation values (Epoch: 2026-05-06T03:51:53.154Z)
Latitude
-0.00003°
Longitude
-120.9359°
Altitude
482.786 km
Speed
7.626 km/s
True Right ascension
10h 44m 14s
True Declination
0° 00' 00"
Sunlit
Object was in full shadow at epoch
Visualization orbit readout
Latitude
Unknown
Longitude
Unknown
Altitude
Unknown
Speed
Unknown
Apparent Right ascension
Unknown
Apparent Declination
Unknown
Sunlit
N/A
Visualization observer readout
Local Sidereal Time
23:14:06
Azimuth
Unknown
Elevation
Unknown
Doppler factor
Unknown
Orbital elements
Apogee altitude
486.011 km
Perigee altitude
484.001 km
Semi-major axis
6,863.143 km
Eccentricity
0.00015
Inclination
43.0027°
RAAN
161.0611°
Arg. of periapsis
272.9908°
True anomaly
87.09435°
Mean anomaly
87.0776°
Eccentric anomaly
87.08598°
Mean motion
3.81732 °/min
Orbital period
94.31 mins
BSTAR
0.000022318
Loading maneuver chart data...
Computing Atmospheric mass density...
Loading historical data...
Loading historical data...
Loading historical data...
Loading historical data...
Loading historical data...
Loading historical data...
Loading historical data...

Documentation

Showing up to 5 results
|